TimeMDT,TemperatureF,Dew PointF,Humidity,Sea Level PressureIn,VisibilityMPH,Wind Direction,Wind SpeedMPH,Gust SpeedMPH,PrecipitationIn,Events,Conditions,WindDirDegrees,DateUTC
12:15 AM,48.2,32.0,54,29.86,10.0,ESE,4.6,-,N/A,,Clear,120,2013-09-22 06:15:00
12:35 AM,46.4,32.0,57,29.86,10.0,Calm,Calm,-,N/A,,Clear,0,2013-09-22 06:35:00
12:55 AM,44.6,32.0,61,29.85,10.0,ESE,4.6,-,N/A,,Clear,120,2013-09-22 06:55:00
1:15 AM,44.6,32.0,61,29.85,10.0,Calm,Calm,-,N/A,,Clear,0,2013-09-22 07:15:00
1:35 AM,46.4,33.8,62,29.85,10.0,Calm,Calm,-,N/A,,Scattered Clouds,0,2013-09-22 07:35:00
1:55 AM,44.6,33.8,66,29.85,10.0,Calm,Calm,-,N/A,,Scattered Clouds,0,2013-09-22 07:55:00
2:15 AM,42.8,35.6,76,29.85,10.0,Calm,Calm,-,N/A,,Scattered Clouds,0,2013-09-22 08:15:00
2:35 AM,42.8,35.6,76,29.85,10.0,Calm,Calm,-,N/A,,Mostly Cloudy,0,2013-09-22 08:35:00
2:55 AM,44.6,37.4,76,29.84,10.0,ESE,3.5,-,N/A,,Mostly Cloudy,110,2013-09-22 08:55:00
3:15 AM,46.4,35.6,66,29.84,10.0,Calm,Calm,-,N/A,Thunderstorm,Thunderstorm,0,2013-09-22 09:15:00
3:35 AM,50.0,35.6,58,29.83,10.0,Calm,Calm,-,N/A,,Overcast,0,2013-09-22 09:35:00
3:55 AM,46.4,39.2,76,29.83,10.0,ESE,8.1,-,N/A,,Mostly Cloudy,120,2013-09-22 09:55:00
4:15 AM,46.4,37.4,71,29.83,10.0,ESE,9.2,-,N/A,Thunderstorm,Mostly Cloudy,120,2013-09-22 10:15:00
4:35 AM,46.4,37.4,71,29.83,7.0,SE,3.5,-,N/A,Thunderstorm,Thunderstorm,130,2013-09-22 10:35:00
4:55 AM,46.4,37.4,71,29.84,10.0,Calm,Calm,-,N/A,Thunderstorm,Thunderstorm,0,2013-09-22 10:55:00
5:15 AM,50.0,37.4,62,29.85,10.0,SE,9.2,-,N/A,,Overcast,130,2013-09-22 11:15:00
5:35 AM,53.6,35.6,51,29.83,10.0,SSE,8.1,-,N/A,,Overcast,160,2013-09-22 11:35:00
5:55 AM,51.8,37.4,58,29.84,10.0,SE,5.8,-,N/A,,Overcast,140,2013-09-22 11:55:00
6:15 AM,50.0,37.4,62,29.84,10.0,Calm,Calm,-,N/A,,Overcast,0,2013-09-22 12:15:00
6:35 AM,50.0,39.2,66,29.84,10.0,ESE,8.1,-,N/A,,Mostly Cloudy,110,2013-09-22 12:35:00
6:55 AM,48.2,39.2,71,29.84,10.0,ESE,4.6,-,N/A,,Mostly Cloudy,110,2013-09-22 12:55:00
7:15 AM,48.2,39.2,71,29.84,10.0,Calm,Calm,-,N/A,,Overcast,0,2013-09-22 13:15:00
7:35 AM,50.0,39.2,66,29.84,10.0,SSE,3.5,-,N/A,,Overcast,150,2013-09-22 13:35:00
7:55 AM,50.0,41.0,71,29.84,10.0,Calm,Calm,-,N/A,,Overcast,0,2013-09-22 13:55:00
8:15 AM,50.0,42.8,76,29.84,10.0,Calm,Calm,-,N/A,,Overcast,0,2013-09-22 14:15:00
8:35 AM,51.8,41.0,67,29.84,10.0,Calm,Calm,-,N/A,,Mostly Cloudy,0,2013-09-22 14:35:00
8:55 AM,51.8,41.0,67,29.84,10.0,SE,6.9,-,N/A,,Overcast,130,2013-09-22 14:55:00
9:15 AM,53.6,41.0,62,29.84,10.0,East,3.5,-,N/A,,Mostly Cloudy,100,2013-09-22 15:15:00
9:35 AM,57.2,41.0,55,29.84,10.0,ESE,8.1,-,N/A,,Scattered Clouds,110,2013-09-22 15:35:00
9:55 AM,59.0,37.4,45,29.84,10.0,ESE,5.8,-,N/A,,Clear,110,2013-09-22 15:55:00
10:15 AM,60.8,32.0,34,29.83,10.0,Calm,Calm,-,N/A,,Clear,0,2013-09-22 16:15:00
10:35 AM,60.8,32.0,34,29.83,10.0,South,6.9,-,N/A,,Clear,180,2013-09-22 16:35:00
10:55 AM,60.8,32.0,34,29.83,10.0,SSW,8.1,-,N/A,,Clear,200,2013-09-22 16:55:00
11:15 AM,59.0,30.2,34,29.84,10.0,SSW,8.1,-,N/A,,Mostly Cloudy,200,2013-09-22 17:15:00
11:35 AM,57.2,32.0,38,29.85,10.0,South,25.3,32.2,N/A,,Overcast,190,2013-09-22 17:35:00
11:55 AM,53.6,35.6,51,29.85,10.0,South,18.4,23.0,N/A,,Overcast,190,2013-09-22 17:55:00
12:15 PM,53.6,35.6,51,29.85,10.0,South,16.1,19.6,N/A,,Overcast,190,2013-09-22 18:15:00
12:35 PM,53.6,33.8,47,29.85,10.0,SSE,17.3,-,N/A,,Overcast,150,2013-09-22 18:35:00
12:55 PM,53.6,35.6,51,29.86,10.0,SE,11.5,-,N/A,,Overcast,130,2013-09-22 18:55:00
1:15 PM,53.6,35.6,51,29.85,10.0,ESE,15.0,20.7,N/A,,Overcast,110,2013-09-22 19:15:00
1:35 PM,53.6,35.6,51,29.85,10.0,ESE,10.4,-,N/A,,Overcast,110,2013-09-22 19:35:00
1:55 PM,53.6,35.6,51,29.85,10.0,East,5.8,-,N/A,,Overcast,90,2013-09-22 19:55:00
2:15 PM,53.6,35.6,51,29.85,10.0,ESE,4.6,-,N/A,,Scattered Clouds,120,2013-09-22 20:15:00
2:35 PM,53.6,35.6,51,29.84,10.0,ESE,5.8,-,N/A,,Clear,120,2013-09-22 20:35:00
2:55 PM,55.4,35.6,47,29.83,10.0,ESE,4.6,-,N/A,,Scattered Clouds,120,2013-09-22 20:55:00
3:15 PM,59.0,35.6,42,29.81,10.0,ESE,5.8,-,N/A,,Mostly Cloudy,110,2013-09-22 21:15:00
3:35 PM,57.2,33.8,41,29.80,10.0,SE,9.2,-,N/A,,Scattered Clouds,130,2013-09-22 21:35:00
3:55 PM,59.0,33.8,39,29.81,10.0,ESE,10.4,-,N/A,,Clear,120,2013-09-22 21:55:00
4:15 PM,59.0,32.0,36,29.80,10.0,SE,11.5,17.3,N/A,,Scattered Clouds,140,2013-09-22 22:15:00
4:35 PM,59.0,32.0,36,29.79,10.0,ESE,8.1,-,N/A,,Mostly Cloudy,120,2013-09-22 22:35:00
4:55 PM,59.0,32.0,36,29.79,10.0,SSE,6.9,-,N/A,,Scattered Clouds,160,2013-09-22 22:55:00
5:15 PM,59.0,32.0,36,29.79,10.0,SE,9.2,-,N/A,,Clear,130,2013-09-22 23:15:00
5:35 PM,59.0,32.0,36,29.79,10.0,South,9.2,-,N/A,,Clear,170,2013-09-22 23:35:00
5:55 PM,59.0,32.0,36,29.79,10.0,SE,5.8,-,N/A,,Clear,140,2013-09-22 23:55:00
6:15 PM,57.2,33.8,41,29.79,10.0,SSE,10.4,-,N/A,,Clear,160,2013-09-23 00:15:00
6:35 PM,55.4,33.8,44,29.79,10.0,South,9.2,-,N/A,,Clear,180,2013-09-23 00:35:00
6:55 PM,53.6,35.6,51,29.79,10.0,South,8.1,-,N/A,,Clear,170,2013-09-23 00:55:00
7:15 PM,51.8,35.6,54,29.79,10.0,South,8.1,-,N/A,,Clear,180,2013-09-23 01:15:00
7:35 PM,51.8,37.4,58,29.79,10.0,SSW,4.6,-,N/A,,Clear,200,2013-09-23 01:35:00
7:55 PM,50.0,37.4,62,29.81,10.0,WNW,8.1,-,N/A,,Scattered Clouds,300,2013-09-23 01:55:00
8:15 PM,48.2,39.2,71,29.82,10.0,NW,12.7,-,N/A,,Scattered Clouds,310,2013-09-23 02:15:00
8:35 PM,46.4,41.0,81,29.83,10.0,WNW,10.4,-,N/A,,Scattered Clouds,300,2013-09-23 02:35:00
8:55 PM,46.4,41.0,81,29.84,10.0,WNW,10.4,-,N/A,,Overcast,300,2013-09-23 02:55:00
9:15 PM,46.4,41.0,81,29.85,10.0,WNW,11.5,-,N/A,,Overcast,300,2013-09-23 03:15:00
9:35 PM,46.4,41.0,81,29.86,10.0,NW,11.5,-,N/A,,Overcast,310,2013-09-23 03:35:00
9:55 PM,46.4,39.2,76,29.84,10.0,North,8.1,-,N/A,,Overcast,350,2013-09-23 03:55:00
10:15 PM,46.4,37.4,71,29.84,10.0,NW,9.2,-,N/A,,Overcast,320,2013-09-23 04:15:00
10:35 PM,46.4,37.4,71,29.85,10.0,NW,8.1,-,N/A,,Overcast,320,2013-09-23 04:35:00
10:55 PM,46.4,37.4,71,29.85,10.0,NW,10.4,-,N/A,,Overcast,310,2013-09-23 04:55:00
11:15 PM,44.6,37.4,76,29.87,10.0,WNW,8.1,-,N/A,,Overcast,290,2013-09-23 05:15:00
11:35 PM,44.6,39.2,81,29.87,10.0,WNW,10.4,-,N/A,,Mostly Cloudy,300,2013-09-23 05:35:00
11:55 PM,44.6,41.0,87,29.88,10.0,WNW,15.0,19.6,N/A,,Mostly Cloudy,300,2013-09-23 05:55:00